Regional Weather Roundup
Issued by NWS

Home | Current Version | Previous Version | Text Only | Print | Product List | Glossary On
Versions: 1 2 3 4 5 6 7 8 9 10 11 12 13 14 15 16 17 18 19 20 21 22 23 24 25 26 27 28 29 30 31 32 33 34 35 36 37 38 39 40 41 42 43 44 45 46 47 48 49 50
250
ASUS43 KOAX 210110
RWRNE

WEATHER ROUNDUP FOR NEBRASKA
NATIONAL WEATHER SERVICE OMAHA NE
700 PM CST SAT JAN 20 2018

NOTES: SATELLITE DATA IS BEING USED TO AUGMENT CLOUD COVER ABOVE
       12000 FEET.
       "FAIR" INDICATES FEW OR NO CLOUDS BELOW 12,000 FEET WITH NO
       SIGNIFICANT WEATHER AND/OR OBSTRUCTIONS TO VISIBILITY.


NEZ001>004-019>022-054>056-210200-
NEBRASKA PANHANDLE

CITY           SKY/WX    TMP DP  RH WIND       PRES   REMARKS
SCOTTSBLUFF    CLOUDY    34  31  88 NE7       29.88R WCI  28
ALLIANCE       CLOUDY    32  31  96 NE12      29.88R WCI  23
CHADRON        CLOUDY    32  31  96 N9        29.94R WCI  24
GORDON         CLOUDY    33  32  96 N13       29.91R WCI  24
KIMBALL        CLOUDY    30  29  96 NE10      29.85R WCI  21
SIDNEY         CLOUDY    31  28  89 N13       29.85R WCI  21
$$

NEZ057>060-069>072-079>082-210200-
SOUTHWEST NEBRASKA

CITY           SKY/WX    TMP DP  RH WIND       PRES   REMARKS
NORTH PLATTE   CLOUDY    36  28  73 N14       29.85R WCI  27
IMPERIAL       CLOUDY    35  29  78 NE13      29.82R WCI  26
LEXINGTON      CLOUDY    37  31  79 NE8       29.83R WCI  31
MCCOOK         CLOUDY    36  29  75 NE9       29.81R WCI  29
OGALLALA       CLOUDY    36  31  82 NE12      29.85R WCI  27
$$

NEZ005>010-023>029-035>040-094-210200-
NORTH CENTRAL NEBRASKA

CITY           SKY/WX    TMP DP  RH WIND       PRES   REMARKS
VALENTINE      CLOUDY    37  33  85 N9        29.92R WCI  30
AINSWORTH      CLOUDY    33  32  96 N8        29.91R WCI  26
BROKEN BOW     CLOUDY    37  29  72 N13       29.85R WCI  29
O`NEILL        CLOUDY    34  33  95 N9        29.90R WCI  26
ORD            CLOUDY    36  30  79 N10       29.85R WCI  28
THEDFORD       CLOUDY    35  32  88 N8        29.88R WCI  29
$$

NEZ041-046>049-061>064-073>077-083>087-210200-
SOUTH CENTRAL NEBRASKA

CITY           SKY/WX    TMP DP  RH WIND       PRES   REMARKS
GRAND ISLAND   CLOUDY    37  32  82 E5        29.84R WCI  33
AURORA         CLOUDY    34  27  75 E5        29.83R WCI  30
HASTINGS       CLOUDY    37  34  89 CALM      29.83R
HEBRON         CLOUDY    42  39  88 NE3       29.82R
HOLDREGE       CLOUDY    32  30  93 NE8       29.81S WCI  25
KEARNEY        CLOUDY    37  33  85 NE7       29.83R WCI  32
YORK           CLOUDY    43  39  87 E5        29.84R
$$

NEZ011>018-030>034-042>045-210200-
NORTHEAST NEBRASKA

CITY           SKY/WX    TMP DP  RH WIND       PRES   REMARKS
NORFOLK        CLOUDY    40  30  67 N7        29.84R
ALBION         CLOUDY    38  32  76 N8        29.86R WCI  33
BLAIR          CLOUDY    40  34  80 E6        29.84S
COLUMBUS       CLOUDY    34  28  79 E3        29.85R
FREMONT        CLOUDY    37  29  72 E3        29.85S
TEKAMAH        CLOUDY    34  26  72 SE3       29.85R
WAYNE          CLOUDY    37  32  84 N8        29.86R WCI  30
$$

NEZ050>053-065>068-078-088>093-210200-
SOUTHEAST NEBRASKA

CITY           SKY/WX    TMP DP  RH WIND       PRES   REMARKS
LINCOLN        CLOUDY    44  39  82 E5        29.85S
OMAHA EPPLEY   CLOUDY    40  36  86 CALM      29.86S
BEATRICE       CLOUDY    42  40  92 E5        29.83S
FALLS CITY     CLOUDY    45  41  86 SE3       29.84S
NEBRASKA CITY  CLOUDY    41  41 100 CALM      29.85S
PLATTSMOUTH    CLOUDY    42  40  93 E3        29.85S
$$

NEZ044-045-051>053-067-210200-
OMAHA AREA

CITY           SKY/WX    TMP DP  RH WIND       PRES   REMARKS
OMAHA EPPLEY   CLOUDY    40  36  86 CALM      29.86S
BLAIR          CLOUDY    40  34  80 E6        29.84S
FREMONT        CLOUDY    37  29  72 E3        29.85S
MILLARD        CLOUDY    44  39  82 CALM      29.85S
OFFUTT AFB     CLOUDY    40  37  90 CALM      29.85S
PLATTSMOUTH    CLOUDY    42  40  93 E3        29.85S
WAHOO          FAIR      35  28  76 CALM      29.85R
$$




USA.gov is the U.S. government's official web portal to all federal, state and local government web resources and services.